Location: Casone le Fosse
(44.6547°N, 12.1103°E)
Time: 11:14:03
(UTC+00:00)

Cosmos 2369 - Pass Details

Date: 29 October 2020
Orbit: 841 x 854 km, 71.0° (Epoch: 27 November)

Event Time Altitude Azimuth Distance (km) Brightness Sun altitude
Rises 18:26:57 0° 220° (SW) 3,410 7.3 -25.9°
Reaches altitude 10° 18:29:28 10° 225° (SW) 2,477 6.6 -26.3°
Maximum altitude 18:35:00 51° 301° (WNW) 1,063 4.4 -27.3°
Enters shadow 18:39:14 17° 12° (NNE) 2,016 5.6 -28.1°
